Location: Devore Heights
(34.2372°N, 117.4156°W)
Time: 07:17:52
(UTC+00:00)

ARIANE 6 FM1 Upper Stage - Pass Details

Date: 18 August 2024
Orbit: 567 x 594 km, 62.0° (Epoch: 06 September)

Event Time Altitude Azimuth Distance (km) Brightness Sun altitude
Rises 12:37:30 0° 200° (SSW) 2,774 5.8 -7.9°
Reaches altitude 10° 12:39:45 10° 196° (SSW) 1,884 5.0 -7.5°
Maximum altitude 12:43:54 54° 119° (ESE) 711 3.5 -6.7°
Drops below altitude 10° 12:48:07 10° 42° (NE) 1,913 6.5 -5.8°
Sets 12:50:25 0° 38° (NE) 2,821 7.3 -5.4°
